Regional Weather Roundup
Issued by NWS

Home | Current Version | Previous Version | Graphics & Text | Print | Product List | Glossary On
Versions: 1 2 3 4 5 6 7 8 9 10 11 12 13 14 15 16 17 18 19 20 21 22 23 24 25 26 27 28 29 30 31 32 33 34 35 36 37 38 39 40 41 42 43 44 45 46 47 48 49 50
679
ASUS43 KMPX 162110
RWRMN
WEATHER ROUNDUP FOR MINNESOTA
NATIONAL WEATHER SERVICE TWIN CITIES/CHANHASSEN MN
400 PM CDT MON OCT 16 2017


NOTE: "FAIR" INDICATES FEW OR NO CLOUDS BELOW 12,000 FEET WITH NO
SIGNIFICANT WEATHER AND/OR OBSTRUCTIONS TO VISIBILITY. N/A MEANS
CURRENT SKY AND/OR WEATHER CONDITIONS ARE NOT AVAILABLE.

MNZ060>063-068>070-162200-
   Twin Cities Metro

CITY           SKY/WX    TMP DP  RH WIND       PRES   REMARKS
TWIN CITIES    MOSUNNY   66  36  32 SW12      30.06F
ST PAUL        SUNNY     64  37  36 S12G20    30.07F
CRYSTAL        SUNNY     64  34  32 S13       30.04F
BLAINE         SUNNY     66  36  32 S14G20    30.06F
LAKEVILLE      SUNNY     64  36  34 SW5       30.07F
EDEN PRAIRIE   SUNNY     67  35  30 SW14G22   30.05F
SOUTH ST PAUL  SUNNY     65  34  31 SW13G18   30.07F
LAKE ELMO      FAIR      63  37  39 SW13      30.08F
$$
MNZ001>005-007-008-013>017-022>024-027-028-162200-
   Northwest Minnesota

CITY           SKY/WX    TMP DP  RH WIND       PRES   REMARKS
BEMIDJI        MOSUNNY   63  36  36 SW15G22   29.86F
HALLOCK        SUNNY     66  34  30 W16       29.78S
ROSEAU           N/A     66  39  37 W18G25    29.77F
WARROAD        SUNNY     64  41  42 SW16G25   29.78S
THIEF RVR FALL SUNNY     68  36  30 SW21G28   29.82
CROOKSTON      SUNNY     70  36  28 W18       29.82F
FOSSTON        SUNNY     66  36  32 SW18G32   29.85F
DETROIT LAKES  SUNNY     66  37  34 SW14G21   29.90F
MOORHEAD       SUNNY     70  37  30 SW17G25   29.87F
PARK RAPIDS    SUNNY     64  38  38 SW21G28   29.91F
MAHNOMEN       FAIR      67  38  35 SW21G30   29.86F
$$
MNZ006-009>011-018-025>026-162200-
   North Central Minnesota

CITY           SKY/WX    TMP DP  RH WIND       PRES   REMARKS
BAUDETTE       SUNNY     65  35  33 SW21G30   29.78F
FLAG ISLAND    SUNNY     61  37  41 SW20      29.73F
INTL FALLS     SUNNY     62  34  35 S12G24    29.81F
WASKISH        MOSUNNY   64  36  34 SW20G25   29.82F
BIG FORK       CLOUDY    63  36  36 S14G22    29.87F
LONGVILLE      SUNNY     66  34  30 SW15G23   29.92F
GRAND RAPIDS   SUNNY     60  34  37 S15G23    29.93F
CRANE LAKE     SUNNY     59  32  36 S10       29.88F
ORR            SUNNY     61  28  29 S12G21    29.85F
COOK           CLOUDY    59  34  38 S13G21    29.90F
WALKER         FAIR      63  35  34 SW15G30   29.89F
$$
MNZ012-019>021-037-162200-
   Northeast Minnesota

CITY           SKY/WX    TMP DP  RH WIND       PRES   REMARKS
DULUTH         MOSUNNY   58  35  42 SW20G28   29.98F
ELY            SUNNY     57  30  35 SW15G22   29.92F
HIBBING        MOSUNNY   58  33  39 SW10G18   29.93F
EVELETH        CLOUDY    57  21  24 SW13G20   29.94F
DULUTH HARBOR  SUNNY     63  36  36 SW16      29.99F
TWO HARBORS    MOSUNNY   61  43  51 S15       29.96F
SILVER BAY     MOSUNNY   57  37  47 S16       29.95F
GRAND MARAIS     N/A     53  46  77 SW16      29.98
G MARAIS ARPRT SUNNY     52  36  54 S9        29.97F
$$
MNZ029>031-032-039>041-046>048-054>057-064-162200-
   West Central Minnesota

CITY           SKY/WX    TMP DP  RH WIND       PRES   REMARKS
FERGUS FALLS   SUNNY     70  39  32 SW16      29.92F
WHEATON        SUNNY     72  32  23 SW15G24   29.95F
MORRIS         SUNNY     70  39  32 SW16      29.95F
ALEXANDRIA     SUNNY     66  36  32 SW16G23   29.97F
ELBOW LAKE     FAIR      67  38  34 W13       29.95F
WADENA         SUNNY     64  39  39 S13G23    29.93F
GLENWOOD       SUNNY     66  36  32 S16       29.98F
APPLETON       SUNNY     73  30  20 SW10G17   29.96F
BENSON         SUNNY     70  34  26 W14       29.99F
ORTONVILLE     SUNNY     72  36  26 NW13      29.96F
MADISON        SUNNY     73  36  25 SW14      29.98S
WILLMAR        FAIR      70  37  30 S5G17     30.01F
$$
MNZ033>034-036-042>043-049>051-058-059-162200-
   Central Minnesota

CITY           SKY/WX    TMP DP  RH WIND       PRES   REMARKS
ST CLOUD       SUNNY     64  38  38 S14       30.01F
SAUK CENTRE    FAIR      65  39  37 SW13      29.98F
PAYNESVILLE    SUNNY     67  37  33 SW13      29.99F
AITKIN         SUNNY     61  34  36 S14       29.95F
PINE RIVER     SUNNY     63  36  36 S14G26    29.96F
BRAINERD       SUNNY     63  36  36 S14G23    29.97F
STAPLES        SUNNY     63  34  34 S15G21    29.95F
LONG PRAIRIE   FAIR      64  37  36 SE12G17   29.98F
LITTLE FALLS   SUNNY     63  28  27 S12       29.99F
LITCHFIELD     SUNNY     70  36  28 SW8       30.02F
BUFFALO        SUNNY     65  35  31 S10G16    30.04F
MAPLE LAKE     SUNNY     68  39  34 S8        30.02F
HUTCHINSON     SUNNY     69  38  32 S10G16    30.04F
$$
MNZ037-044-045-052-053-162200-
   East Central Minnesota

CITY           SKY/WX    TMP DP  RH WIND       PRES   REMARKS
PRINCETON      SUNNY     66  37  34 S12G17    30.02F
MORA           SUNNY     59  34  38 SW15      30.04F
CAMBRIDGE      SUNNY     64  43  45 S12G22    30.04F
RUSH CITY      SUNNY     62  35  36 S12       30.05F
MOOSE LAKE     SUNNY     61  36  39 S13G20    29.99F
HINCKLEY       FAIR      61  37  41 SW14      30.03F
CLOQUET        SUNNY     61  30  31 S16       29.98F
MCGREGOR       SUNNY     61  36  39 S14       29.98F
$$
MNZ071>073-080-081-089-090-097-098-162200-
   Southwest Minnesota

CITY           SKY/WX    TMP DP  RH WIND       PRES   REMARKS
MONTEVIDEO     SUNNY     73  36  25 SW12G21   29.99S
GRANITE FALLS  SUNNY     72  38  28 S13G18    30.01F
CANBY          SUNNY     70  36  28 SW14G22   29.98F
MARSHALL       SUNNY     71  36  27 SW20G29   29.99F
REDWOOD FALLS  SUNNY     70  33  25 S16G24    30.00F
OLIVIA         SUNNY     70  36  28 S12G21    30.00F
PIPESTONE      SUNNY     72  36  26 SW18      30.02F
WORTHINGTON    SUNNY     69  36  29 SW16G23   30.05F
JACKSON        SUNNY     68  32  26 SW16      30.07F
TRACY          SUNNY     70  38  30 S15       30.01F
SLAYTON        SUNNY     69  35  28 SW18G26   30.03F
$$
MNZ065>067-074>077-082>085-091>093-162200-
   South Central Minnesota

CITY           SKY/WX    TMP DP  RH WIND       PRES   REMARKS
MANKATO        SUNNY     68  34  28 SW15      30.06F
NEW ULM        SUNNY     68  34  28 SW12G21   30.04F
ST JAMES       SUNNY     70  34  26 S16G24    30.06F
GLENCOE        SUNNY     69  35  28 SW9G17    30.03F
FARIBAULT      SUNNY     66  36  32 S13G18    30.08F
OWATONNA       SUNNY     66  37  34 S17       30.09F
WASECA         SUNNY     64  32  29 SW12G21   30.09F
ALBERT LEA     SUNNY     70  36  28 S10       30.11F
$$
MNZ078>079-086>088-094>096-162200-
   Southeast Minnesota

CITY           SKY/WX    TMP DP  RH WIND       PRES   REMARKS
ROCHESTER      SUNNY     64  38  38 SW15      30.13F
RED WING       SUNNY     66  28  24 W9        30.08F
STANTON        SUNNY     67  34  30 SW14      30.07F
DODGE CENTER   SUNNY     64  30  27 SW16G23   30.11F
WINONA         SUNNY     64  32  29 W6        30.13F
AUSTIN         SUNNY     64  34  32 SW16      30.12F
PRESTON        SUNNY     63  32  31 SW9       30.14F
$$
ABBREVIATIONS USED IN REMARKS
   TC - TEMPERATURES IN CELSIUS
  WCI - WIND CHILL INDEX
   HX - HEAT INDEX
  VSB - VISIBILITY
$$




USA.gov is the U.S. government's official web portal to all federal, state and local government web resources and services.